Погода в Юньлоне

Китай     22°26′36″N   114°01′20″E
темп.,
°C
ветер,
м/с
пор.,
м/с
влажн.,
%
обл.,
%
осадки,
мм/ч
давл.,
гПа
погр.,
м
12 мая, ср
ср1223:00+27ю478525 0.1 1009489
02:00+28ю478095 0.1 1007346
05:00+27ю468619 0.1 1008264
08:00+28ю467624 0.4 1009480
11:00+30ююз566920 0.2 1009863
14:00+30ююз67684 0.2 1007871
17:00+30ю577116 0.1 1006715
20:00+28ю47760 0.1 1007442
13 мая, чт
чт1323:00+28ююв468664 0.0 1008368
02:00+27ююв36871 0.1 1007322
05:00+27ююв35890 0.1 1008290
08:00+28ю35802 0.1 1009567
11:00+30ююз467383 0.1 1009777
14:00+30ю566968 0.2 1007834
17:00+30ю577275 0.0 1006690
20:00+29ююв467884 0.0 1008395
14 мая, пт
пт1423:00+28ююв4582100 0.1 1008343
02:00+27ююв358866 0.2 1007344
05:00+27ююв358756 0.4 1007321
08:00+28ююв467850 0.6 1009634
11:00+30ю5773100 0.1 1009835
14:00+30ю577187 0.3 1007818
17:00+29ю577496 0.1 1006748
20:00+28ююв4682100 0.1 1008524
15 мая, сб
сб1523:00+28ююв46835 0.1 1009400
02:00+27ююв35855 0.1 1008395
05:00+27юв358611 0.0 1008371
08:00+28юв35764 0.1 1009690
11:00+30ю55670 0.0 1010866
14:00+30ю566660 0.0 1008824
17:00+29ю56700 0.0 1007699
20:00+28ююв56790 0.0 1008470
16 мая, вс
вс1623:00+27ююв46810 0.0 1009455
02:00+27ююв35843 0.0 1008450
05:00+26юв34862 0.0 1008341
08:00+28ююв347711 0.1 1009606
11:00+30ю45681 0.1 1009815
14:00+30ю45670 0.1 1008769
17:00+30ю55690 0.0 1007618
20:00+28ю56820 0.0 1008432